This demonstration page uses our WeatherBlox Daily Observations layout. Learn more.

Left ArrowRight Arrow

Hourly Observations for November 13, 2016

Temp ( °F °C ) Dew Point ( °F °C ) Humidity (%) Winds ( mph kmh ) Pressure ( in mb ) Visibility ( mi km ) Precip ( " mm )
12:59 am 00:59 Clear 34 1.1 32 0 92 92 SSW 5 7 30.32 1027 9 14 0.00 0.00
1:59 am 01:59 Clear 35 1.7 33 0.6 93 93 Calm 30.33 1027 9 14 0.00 0.00
2:59 am 02:59 Clear 35 1.7 33 0.6 93 93 Calm 30.32 1027 9 14 0.00 0.00
3:59 am 03:59 Clear 33 0.6 32 0 96 96 Calm 30.31 1026 9 14 0.00 0.00
4:59 am 04:59 Clear 32 0 30 -1.1 92 92 SW 5 7 30.31 1026 10 16 0.00 0.00
5:59 am 05:59 Clear 34 1.1 32 0 92 92 SW 3 6 30.31 1026 9 14 0.00 0.00
6:59 am 06:59 Partly Cloudy with Mist and Fog 34 1.1 32 0 92 92 Calm 30.31 1027 6 10 0.00 0.00
7:59 am 07:59 Sunny 40 4.4 37 2.8 89 89 WSW 3 6 30.32 1027 10 16 0.00 0.00
8:59 am 08:59 Sunny 46 7.8 36 2.2 68 68 W 5 7 30.32 1027 10 16 0.00 0.00
9:59 am 09:59 Sunny 49 9.4 35 1.7 59 59 W 6 9 30.32 1027 10 16 0.00 0.00
10:59 am 10:59 Sunny 52 11.1 33 0.6 49 49 VRB 3 6 30.30 1026 10 16 0.00 0.00
11:59 am 11:59 Sunny 55 12.8 30 -1.1 38 38 VRB 3 6 30.27 1025 10 16 0.00 0.00
12:59 pm 12:59 Sunny 58 14.4 19 -7.2 22 22 W 5 7 30.25 1024 10 16 0.00 0.00
1:59 pm 13:59 Sunny 60 15.6 8 -13.3 12 12 Calm 30.22 1024 10 16 0.00 0.00
2:59 pm 14:59 Mostly Sunny 61 16.1 18 -7.8 19 19 Calm 30.21 1023 10 16 0.00 0.00
3:59 pm 15:59 Sunny 60 15.6 28 -2.2 30 30 Calm 30.20 1023 10 16 0.00 0.00
4:59 pm 16:59 Mostly Clear 50 10 35 1.7 57 57 Calm 30.19 1023 10 16 0.00 0.00
5:59 pm 17:59 Mostly Clear 45 7.2 35 1.7 68 68 Calm 30.19 1023 10 16 0.00 0.00
6:59 pm 18:59 Clear 44 6.7 36 2.2 73 73 Calm 30.19 1023 10 16 0.00 0.00
7:59 pm 19:59 Clear 45 7.2 36 2.2 71 71 S 5 7 30.20 1023 10 16 0.00 0.00
8:59 pm 20:59 Clear 46 7.8 36 2.2 68 68 S 7 11 30.20 1023 10 16 0.00 0.00
9:59 pm 21:59 Mostly Clear 41 5 36 2.2 82 82 Calm 30.19 1023 10 16 0.00 0.00
10:59 pm 22:59 Mostly Clear 39 3.9 36 2.2 89 89 Calm 30.18 1022 10 16 0.00 0.00
11:59 pm 23:59 Mostly Clear 38 3.3 34 1.1 86 86 Calm 30.17 1022 10 16 0.00 0.00

Powered by AerisWeather